Language: 


Des rapports , des résumés tant et plus, au choix de chacun....


Données statistiques de la station
Quotidien Rapport Février 8, 2017 Unités:  Métrique    Anglais   les deux
« Précédent Jour
Suivant Jour »
Quotidien Hebdomadaire Mensuel Annuel Actuel
  Haut: Bas: Moyen:
Température: 6.2 °C 2.7 °C 4.4 °C
Pt de rosée: 5.9 °C 2.3 °C 4 °C
Humidité: 98 % 96 % 97 %
Vitesse du vent: 20.9 km/h 0.0 km/h 8.4 km/h
Rafales: 21.2 km/h - -
Vent:- - West
Pression: 1027.0 hPa 0.0 hPa -
Précipitation: 0.0 mm    
Historical Graphs
 
 
Données statistiques pour Février 8, 2017
Heure Température Point de rosée Pression Vent Vitesse du vent Refales Humidité Pluie (taux horaire)
00:00 6.2 °C 5.9 °C 1016.8 hPa WNW 4.0 km/h 5.8 km/h 98 % 0.3 mm
00:05 6.2 °C 5.9 °C 1016.8 hPa Calm   4.3 km/h 98 % 0.3 mm
00:10 6.2 °C 5.9 °C 1016.8 hPa Calm   4.3 km/h 98 % 0.3 mm
00:15 6.2 °C 5.9 °C 1016.8 hPa NNW 4.0 km/h 7.2 km/h 98 % 0.3 mm
00:20 6.2 °C 5.9 °C 1016.8 hPa Calm   7.2 km/h 98 % 0.3 mm
00:25 6.2 °C 5.9 °C 1016.8 hPa Calm   6.1 km/h 98 % 0.3 mm
00:30 6.2 °C 5.9 °C 1016.8 hPa North 8.7 km/h 8.7 km/h 98 % 0.3 mm
00:35 6.2 °C 5.9 °C 1016.8 hPa Calm   8.7 km/h 98 % 0.3 mm
00:40 6.1 °C 5.8 °C 1016.8 hPa Calm   8.7 km/h 98 % 0.3 mm
00:45 6.1 °C 5.8 °C 1016.8 hPa Calm   6.9 km/h 98 % 0.0 mm
00:50 6.1 °C 5.8 °C 1016.8 hPa NW 5.8 km/h 6.9 km/h 98 % 0.0 mm
00:55 6.1 °C 5.8 °C 1016.8 hPa North 9.0 km/h 9.0 km/h 98 % 0.0 mm
01:00 6.0 °C 5.7 °C 1016.8 hPa North 6.1 km/h 9.7 km/h 98 % 0.0 mm
01:05 6.0 °C 5.7 °C 1016.8 hPa WNW 7.6 km/h 9.7 km/h 98 % 0.0 mm
01:10 6.0 °C 5.7 °C 1016.8 hPa NNW 6.4 km/h 7.9 km/h 98 % 0.0 mm
01:15 6.0 °C 5.7 °C 1016.8 hPa NW 6.4 km/h 7.6 km/h 98 % 0.0 mm
01:20 6.0 °C 5.7 °C 1016.8 hPa Calm   6.9 km/h 98 % 0.0 mm
01:25 6.0 °C 5.7 °C 1016.1 hPa NNE 4.0 km/h 6.4 km/h 98 % 0.0 mm
01:30 6.0 °C 5.7 °C 1016.1 hPa NNW 5.5 km/h 6.4 km/h 98 % 0.0 mm
01:35 6.0 °C 5.7 °C 1016.1 hPa North 8.7 km/h 8.7 km/h 98 % 0.0 mm
01:40 6.0 °C 5.7 °C 1016.1 hPa NNW 4.7 km/h 8.7 km/h 98 % 0.0 mm
01:45 6.0 °C 5.7 °C 1016.1 hPa NW 4.7 km/h 8.7 km/h 98 % 0.0 mm
01:50 6.0 °C 5.7 °C 1016.1 hPa North 3.5 km/h 5.8 km/h 98 % 0.0 mm
01:55 5.9 °C 5.6 °C 1016.8 hPa Calm   4.7 km/h 98 % 0.0 mm
02:02 5.9 °C 5.6 °C 0.0 hPa NW 2.1 km/h 7.6 km/h 98 % 0.0 mm
02:07 5.9 °C 5.6 °C 1016.8 hPa North 5.5 km/h 7.6 km/h 98 % 0.0 mm
02:12 5.8 °C 5.5 °C 1016.8 hPa NNW 5.8 km/h 5.8 km/h 98 % 0.0 mm
02:17 5.8 °C 5.5 °C 1016.8 hPa North 6.4 km/h 6.4 km/h 98 % 0.0 mm
02:22 5.8 °C 5.5 °C 1016.8 hPa Calm   6.4 km/h 98 % 0.0 mm
02:27 5.7 °C 5.4 °C 1016.8 hPa NNW 3.5 km/h 5.8 km/h 98 % 0.0 mm
02:32 5.7 °C 5.4 °C 1016.8 hPa WNW 4.3 km/h 9.0 km/h 98 % 0.0 mm
02:37 5.7 °C 5.4 °C 1016.8 hPa North 3.2 km/h 9.0 km/h 98 % 0.0 mm
02:42 5.8 °C 5.5 °C 1016.8 hPa West 4.0 km/h 6.1 km/h 98 % 0.0 mm
02:47 5.8 °C 5.5 °C 1016.8 hPa NE 6.4 km/h 6.9 km/h 98 % 0.0 mm
02:52 5.8 °C 5.5 °C 1016.8 hPa North 5.5 km/h 9.3 km/h 98 % 0.0 mm
02:57 5.8 °C 5.5 °C 1016.8 hPa North 1.4 km/h 9.3 km/h 98 % 0.0 mm
03:02 5.8 °C 5.5 °C 1016.8 hPa NW 4.3 km/h 6.4 km/h 98 % 0.0 mm
03:07 5.8 °C 5.5 °C 1018.2 hPa Calm   6.4 km/h 98 % 0.0 mm
03:12 5.8 °C 5.5 °C 1018.2 hPa Calm   6.4 km/h 98 % 0.0 mm
03:17 5.8 °C 5.5 °C 1018.2 hPa NW 5.8 km/h 8.7 km/h 98 % 0.0 mm
03:22 5.8 °C 5.5 °C 1016.8 hPa North 5.8 km/h 9.3 km/h 98 % 0.0 mm
03:27 5.8 °C 5.5 °C 1016.8 hPa WNW 6.1 km/h 9.3 km/h 98 % 0.0 mm
03:32 5.9 °C 5.6 °C 1016.8 hPa NNW 3.2 km/h 9.3 km/h 98 % 0.0 mm
03:37 5.9 °C 5.6 °C 1016.8 hPa NW 5.0 km/h 8.7 km/h 98 % 0.0 mm
03:42 5.9 °C 5.6 °C 1016.8 hPa North 6.1 km/h 6.4 km/h 98 % 0.0 mm
03:47 5.9 °C 5.6 °C 1016.8 hPa North 5.5 km/h 6.4 km/h 98 % 0.0 mm
03:52 5.9 °C 5.6 °C 1016.8 hPa NNW 6.9 km/h 12.6 km/h 98 % 0.0 mm
03:57 5.9 °C 5.6 °C 1016.8 hPa NNW 9.0 km/h 12.6 km/h 98 % 0.0 mm
04:02 5.8 °C 5.5 °C 1016.8 hPa North 12.6 km/h 12.6 km/h 98 % 0.0 mm
04:07 5.8 °C 5.5 °C 1016.8 hPa North 7.9 km/h 13.0 km/h 98 % 0.0 mm
04:12 5.8 °C 5.5 °C 1016.8 hPa North 6.1 km/h 13.0 km/h 98 % 0.0 mm
04:17 5.8 °C 5.5 °C 1016.8 hPa NNW 11.6 km/h 13.0 km/h 98 % 0.0 mm
04:22 5.7 °C 5.4 °C 1016.8 hPa North 9.7 km/h 15.8 km/h 98 % 0.0 mm
04:27 5.7 °C 5.4 °C 1016.8 hPa North 5.0 km/h 15.8 km/h 98 % 0.0 mm
04:32 5.7 °C 5.4 °C 1016.8 hPa North 9.0 km/h 13.0 km/h 98 % 0.0 mm
04:37 5.6 °C 5.3 °C 1018.2 hPa North 6.4 km/h 13.0 km/h 98 % 0.0 mm
04:42 5.6 °C 5.3 °C 1018.2 hPa North 7.6 km/h 11.9 km/h 98 % 0.0 mm
04:47 5.6 °C 5.3 °C 1018.2 hPa NNE 6.1 km/h 11.6 km/h 98 % 0.0 mm
04:52 5.6 °C 5.3 °C 1016.8 hPa North 9.7 km/h 11.6 km/h 98 % 0.0 mm
04:57 5.6 °C 5.3 °C 1016.8 hPa NNW 6.9 km/h 12.6 km/h 98 % 0.0 mm
05:02 5.6 °C 5.3 °C 1016.8 hPa NNW 8.7 km/h 12.6 km/h 98 % 0.0 mm
05:07 5.6 °C 5.3 °C 1018.2 hPa North 11.6 km/h 13.0 km/h 98 % 0.0 mm
05:12 5.5 °C 5.2 °C 1018.2 hPa NNE 10.8 km/h 13.0 km/h 98 % 0.0 mm
05:17 5.5 °C 5.2 °C 1018.2 hPa North 10.5 km/h 17.2 km/h 98 % 0.0 mm
05:22 5.5 °C 5.2 °C 1018.2 hPa North 5.5 km/h 17.2 km/h 98 % 0.0 mm
05:27 5.5 °C 5.2 °C 1018.2 hPa NNE 9.3 km/h 15.1 km/h 98 % 0.0 mm
05:32 5.5 °C 5.2 °C 1018.2 hPa North 5.8 km/h 15.1 km/h 98 % 0.0 mm
05:37 5.5 °C 5.2 °C 1018.8 hPa North 5.8 km/h 11.6 km/h 98 % 0.0 mm
05:42 5.4 °C 5.1 °C 1018.8 hPa North 9.7 km/h 11.9 km/h 98 % 0.0 mm
05:47 5.3 °C 5.0 °C 1018.8 hPa NNE 10.1 km/h 12.2 km/h 98 % 0.0 mm
05:52 5.3 °C 5.0 °C 1018.8 hPa NNE 6.1 km/h 14.0 km/h 98 % 0.0 mm
05:57 5.3 °C 5.0 °C 1018.8 hPa NNW 6.9 km/h 14.0 km/h 98 % 0.0 mm
06:02 5.3 °C 5.0 °C 1018.8 hPa North 4.7 km/h 11.6 km/h 98 % 0.0 mm
06:07 5.3 °C 5.0 °C 1018.8 hPa NNE 2.1 km/h 10.1 km/h 98 % 0.0 mm
06:12 5.3 °C 5.0 °C 1018.8 hPa North 5.0 km/h 12.2 km/h 98 % 0.0 mm
06:17 5.2 °C 4.9 °C 1018.8 hPa NNW 8.7 km/h 12.2 km/h 98 % 0.0 mm
06:22 5.2 °C 4.9 °C 1018.8 hPa North 9.7 km/h 12.6 km/h 98 % 0.0 mm
06:27 5.2 °C 4.9 °C 1018.8 hPa NW 6.1 km/h 12.6 km/h 98 % 0.0 mm
06:32 5.1 °C 4.8 °C 1018.8 hPa North 5.5 km/h 14.0 km/h 98 % 0.0 mm
06:37 5.0 °C 4.7 °C 1018.8 hPa North 6.4 km/h 16.3 km/h 98 % 0.0 mm
06:42 5.0 °C 4.7 °C 1018.8 hPa WNW 7.9 km/h 16.3 km/h 98 % 0.0 mm
06:47 5.0 °C 4.7 °C 1018.8 hPa NNE 4.3 km/h 10.1 km/h 98 % 0.0 mm
06:52 5.0 °C 4.7 °C 1018.8 hPa NNW 4.3 km/h 10.1 km/h 98 % 0.0 mm
06:57 5.0 °C 4.7 °C 1018.8 hPa North 9.3 km/h 13.7 km/h 98 % 0.0 mm
07:02 4.9 °C 4.6 °C 1018.8 hPa NNW 4.7 km/h 13.7 km/h 98 % 0.0 mm
07:07 4.9 °C 4.6 °C 1018.8 hPa NNE 5.0 km/h 13.7 km/h 98 % 0.0 mm
07:12 4.9 °C 4.6 °C 1018.8 hPa North 4.7 km/h 11.1 km/h 98 % 0.0 mm
07:17 4.8 °C 4.5 °C 1018.8 hPa North 15.4 km/h 15.4 km/h 98 % 0.0 mm
07:22 4.8 °C 4.5 °C 1018.8 hPa NNE 10.1 km/h 15.4 km/h 98 % 0.0 mm
07:27 4.8 °C 4.5 °C 1018.8 hPa NNE 5.8 km/h 16.3 km/h 98 % 0.0 mm
07:32 4.7 °C 4.4 °C 1018.8 hPa North 14.3 km/h 19.1 km/h 98 % 0.0 mm
07:37 4.7 °C 4.4 °C 1019.9 hPa NNE 11.9 km/h 19.1 km/h 98 % 0.0 mm
07:42 4.7 °C 4.4 °C 1019.9 hPa North 9.3 km/h 16.3 km/h 98 % 0.0 mm
07:47 4.7 °C 4.4 °C 1019.9 hPa North 12.2 km/h 16.3 km/h 98 % 0.0 mm
07:52 4.6 °C 4.3 °C 1019.9 hPa NNW 5.8 km/h 12.2 km/h 98 % 0.0 mm
07:57 4.6 °C 4.3 °C 1019.9 hPa NNW 7.9 km/h 12.2 km/h 98 % 0.0 mm
08:02 4.6 °C 4.3 °C 1019.9 hPa NNW 6.1 km/h 11.9 km/h 98 % 0.0 mm
08:07 4.6 °C 4.3 °C 1020.9 hPa North 9.0 km/h 13.7 km/h 98 % 0.0 mm
08:12 4.6 °C 4.3 °C 1020.9 hPa North 10.1 km/h 13.7 km/h 98 % 0.0 mm
08:17 4.6 °C 4.3 °C 1020.9 hPa North 9.0 km/h 13.7 km/h 98 % 0.0 mm
08:22 4.5 °C 4.2 °C 1020.9 hPa North 12.2 km/h 12.6 km/h 98 % 0.0 mm
08:27 4.5 °C 4.2 °C 1020.9 hPa NNW 12.6 km/h 14.0 km/h 98 % 0.0 mm
08:32 4.5 °C 4.2 °C 1020.9 hPa North 6.4 km/h 14.0 km/h 98 % 0.0 mm
08:37 4.5 °C 4.2 °C 1020.9 hPa NNW 15.8 km/h 16.3 km/h 98 % 0.0 mm
08:42 4.5 °C 4.2 °C 1020.9 hPa North 9.0 km/h 16.3 km/h 98 % 0.0 mm
08:47 4.4 °C 4.1 °C 1020.9 hPa NNW 7.9 km/h 15.8 km/h 98 % 0.0 mm
08:52 4.4 °C 4.1 °C 1019.9 hPa North 11.6 km/h 15.8 km/h 98 % 0.0 mm
08:57 4.4 °C 4.1 °C 1019.9 hPa NNE 9.0 km/h 15.8 km/h 98 % 0.0 mm
09:02 4.4 °C 4.1 °C 1019.9 hPa NNE 9.3 km/h 15.8 km/h 98 % 0.0 mm
09:07 4.3 °C 4.0 °C 1020.9 hPa North 12.6 km/h 17.7 km/h 98 % 0.0 mm
09:12 4.3 °C 4.0 °C 1020.9 hPa NNE 7.9 km/h 17.7 km/h 98 % 0.0 mm
09:17 4.3 °C 4.0 °C 1020.9 hPa NNE 10.1 km/h 15.8 km/h 98 % 0.0 mm
09:22 4.4 °C 4.1 °C 1020.9 hPa North 13.0 km/h 14.3 km/h 98 % 0.0 mm
09:27 4.3 °C 4.0 °C 1020.9 hPa NNW 8.7 km/h 13.7 km/h 98 % 0.0 mm
09:32 4.3 °C 4.0 °C 1020.9 hPa North 10.1 km/h 13.7 km/h 98 % 0.0 mm
09:37 4.3 °C 4.0 °C 1021.9 hPa North 13.0 km/h 15.8 km/h 98 % 0.0 mm
09:42 4.3 °C 4.0 °C 1021.9 hPa NNE 9.7 km/h 15.8 km/h 98 % 0.0 mm
09:47 4.4 °C 4.1 °C 1021.9 hPa NE 9.0 km/h 13.0 km/h 98 % 0.0 mm
09:52 4.4 °C 4.1 °C 1021.9 hPa NNE 2.6 km/h 10.5 km/h 98 % 0.0 mm
09:57 4.4 °C 4.1 °C 1021.9 hPa NNE 11.9 km/h 12.6 km/h 98 % 0.0 mm
10:02 4.4 °C 4.1 °C 1021.9 hPa North 13.7 km/h 13.7 km/h 98 % 0.0 mm
10:07 4.4 °C 4.1 °C 1021.9 hPa NNE 6.4 km/h 14.0 km/h 98 % 0.0 mm
10:12 4.4 °C 4.1 °C 1021.9 hPa NNE 9.0 km/h 14.0 km/h 98 % 0.0 mm
10:17 4.4 °C 4.1 °C 1021.9 hPa North 7.9 km/h 15.4 km/h 98 % 0.0 mm
10:22 4.4 °C 4.1 °C 1021.9 hPa North 11.9 km/h 15.4 km/h 98 % 0.0 mm
10:27 4.4 °C 4.1 °C 1021.9 hPa NNE 6.9 km/h 14.0 km/h 98 % 0.0 mm
10:32 4.4 °C 4.1 °C 1021.9 hPa North 9.7 km/h 14.0 km/h 98 % 0.0 mm
10:37 4.5 °C 4.2 °C 1021.9 hPa North 9.7 km/h 13.7 km/h 98 % 0.0 mm
10:42 4.5 °C 4.2 °C 1021.9 hPa NNW 10.1 km/h 15.4 km/h 98 % 0.0 mm
10:47 4.5 °C 4.2 °C 1021.9 hPa North 9.0 km/h 15.4 km/h 98 % 0.0 mm
10:52 4.5 °C 4.2 °C 1021.9 hPa North 8.7 km/h 15.4 km/h 98 % 0.0 mm
10:57 4.5 °C 4.2 °C 1021.9 hPa North 15.4 km/h 15.4 km/h 98 % 0.0 mm
11:02 4.5 °C 4.2 °C 1021.9 hPa North 9.0 km/h 15.4 km/h 98 % 0.0 mm
11:07 4.5 °C 4.2 °C 1022.9 hPa North 6.1 km/h 15.4 km/h 98 % 0.0 mm
11:12 4.5 °C 4.2 °C 1022.9 hPa North 6.1 km/h 14.0 km/h 98 % 0.0 mm
11:17 4.4 °C 4.1 °C 1022.9 hPa North 14.0 km/h 14.0 km/h 98 % 0.0 mm
11:22 4.4 °C 4.1 °C 1022.9 hPa North 5.5 km/h 15.4 km/h 98 % 0.0 mm
11:27 4.4 °C 4.1 °C 1022.9 hPa NNE 9.7 km/h 17.2 km/h 98 % 0.0 mm
11:32 4.4 °C 4.1 °C 1022.9 hPa North 6.9 km/h 17.2 km/h 98 % 0.0 mm
11:37 4.4 °C 4.1 °C 1022.9 hPa NNE 8.7 km/h 17.2 km/h 98 % 0.0 mm
11:42 4.4 °C 4.1 °C 1022.9 hPa North 13.0 km/h 15.4 km/h 98 % 0.0 mm
11:47 4.4 °C 4.1 °C 1022.9 hPa North 13.7 km/h 16.3 km/h 98 % 0.0 mm
11:52 4.4 °C 4.1 °C 1022.9 hPa NE 10.1 km/h 16.3 km/h 98 % 0.0 mm
11:57 4.4 °C 4.1 °C 1022.9 hPa NE 13.7 km/h 15.8 km/h 98 % 0.0 mm
12:02 4.3 °C 4.0 °C 1022.9 hPa NNE 9.3 km/h 16.3 km/h 98 % 0.0 mm
12:07 4.3 °C 4.0 °C 1022.9 hPa NNE 5.5 km/h 16.3 km/h 98 % 0.0 mm
12:12 4.4 °C 4.1 °C 1022.9 hPa NNW 17.7 km/h 17.7 km/h 98 % 0.0 mm
12:17 4.3 °C 4.0 °C 1022.9 hPa North 20.9 km/h 20.9 km/h 98 % 0.0 mm
12:22 4.4 °C 4.1 °C 1022.9 hPa NE 10.8 km/h 20.9 km/h 98 % 0.0 mm
12:27 4.5 °C 4.2 °C 1022.9 hPa North 14.0 km/h 16.9 km/h 98 % 0.0 mm
12:32 4.4 °C 4.1 °C 1022.9 hPa North 12.2 km/h 16.9 km/h 98 % 0.0 mm
12:37 4.5 °C 4.2 °C 1022.9 hPa North 11.9 km/h 17.7 km/h 98 % 0.0 mm
12:42 4.4 °C 4.0 °C 1022.9 hPa North 9.0 km/h 17.7 km/h 97 % 0.0 mm
12:47 4.4 °C 4.0 °C 1022.9 hPa North 12.6 km/h 17.7 km/h 97 % 0.0 mm
12:52 4.4 °C 4.0 °C 1022.9 hPa NNW 15.8 km/h 20.1 km/h 97 % 0.0 mm
12:57 4.3 °C 3.9 °C 1022.9 hPa NE 9.0 km/h 20.1 km/h 97 % 0.0 mm
13:02 4.3 °C 3.9 °C 1022.9 hPa North 9.0 km/h 20.1 km/h 97 % 0.0 mm
13:07 4.3 °C 3.9 °C 1022.9 hPa North 9.3 km/h 19.5 km/h 97 % 0.0 mm
13:12 4.2 °C 3.8 °C 1022.9 hPa NE 13.0 km/h 20.1 km/h 97 % 0.0 mm
13:17 4.2 °C 3.8 °C 1022.9 hPa NNE 17.2 km/h 20.1 km/h 97 % 0.0 mm
13:22 4.1 °C 3.7 °C 1022.9 hPa North 9.7 km/h 17.7 km/h 97 % 0.0 mm
13:27 4.1 °C 3.7 °C 1022.9 hPa NNE 6.9 km/h 17.7 km/h 97 % 0.0 mm
13:32 4.1 °C 3.7 °C 1022.9 hPa North 10.1 km/h 17.2 km/h 97 % 0.0 mm
13:37 4.1 °C 3.7 °C 1021.9 hPa NNE 12.2 km/h 19.5 km/h 97 % 0.0 mm
13:42 4.2 °C 3.8 °C 1021.9 hPa NE 9.0 km/h 19.5 km/h 97 % 0.0 mm
13:47 4.1 °C 3.7 °C 1021.9 hPa NNE 10.1 km/h 17.7 km/h 97 % 0.0 mm
13:52 4.2 °C 3.8 °C 1022.9 hPa North 14.3 km/h 17.7 km/h 97 % 0.0 mm
13:57 4.1 °C 3.7 °C 1022.9 hPa North 15.8 km/h 17.2 km/h 97 % 0.0 mm
14:02 4.2 °C 3.8 °C 1022.9 hPa North 8.7 km/h 17.7 km/h 97 % 0.0 mm
14:07 4.2 °C 3.8 °C 1022.9 hPa North 11.6 km/h 17.7 km/h 97 % 0.0 mm
14:12 4.2 °C 3.8 °C 1022.9 hPa North 9.0 km/h 16.6 km/h 97 % 0.0 mm
14:17 4.2 °C 3.8 °C 1022.9 hPa North 7.9 km/h 14.0 km/h 97 % 0.0 mm
14:22 4.1 °C 3.7 °C 1022.9 hPa North 8.7 km/h 14.3 km/h 97 % 0.0 mm
14:27 4.1 °C 3.7 °C 1022.9 hPa North 10.1 km/h 17.2 km/h 97 % 0.0 mm
14:32 4.1 °C 3.7 °C 1022.9 hPa North 10.1 km/h 17.2 km/h 97 % 0.0 mm
14:37 4.1 °C 3.7 °C 1022.9 hPa NNE 11.9 km/h 11.9 km/h 97 % 0.0 mm
14:42 4.0 °C 3.6 °C 1022.9 hPa North 12.6 km/h 16.6 km/h 97 % 0.0 mm
14:47 3.9 °C 3.5 °C 1022.9 hPa North 6.9 km/h 17.7 km/h 97 % 0.0 mm
14:52 3.9 °C 3.5 °C 1022.9 hPa NNW 5.5 km/h 19.5 km/h 97 % 0.0 mm
14:57 3.9 °C 3.5 °C 1022.9 hPa North 11.9 km/h 19.5 km/h 97 % 0.0 mm
15:02 3.9 °C 3.5 °C 1022.9 hPa North 16.6 km/h 20.1 km/h 97 % 0.0 mm
15:07 3.9 °C 3.5 °C 1021.9 hPa NE 9.3 km/h 20.1 km/h 97 % 0.0 mm
15:12 4.0 °C 3.6 °C 1021.9 hPa North 10.5 km/h 16.6 km/h 97 % 0.0 mm
15:17 3.9 °C 3.5 °C 1021.9 hPa NE 5.8 km/h 18.3 km/h 97 % 0.0 mm
15:22 4.0 °C 3.6 °C 1022.9 hPa NW 6.1 km/h 18.3 km/h 97 % 0.0 mm
15:27 4.0 °C 3.6 °C 1022.9 hPa North 4.7 km/h 12.2 km/h 97 % 0.0 mm
15:32 3.9 °C 3.5 °C 1022.9 hPa NE 9.0 km/h 12.2 km/h 97 % 0.0 mm
15:37 3.8 °C 3.4 °C 1023.9 hPa North 10.5 km/h 14.8 km/h 97 % 0.0 mm
15:42 3.8 °C 3.4 °C 1023.9 hPa North 9.0 km/h 14.8 km/h 97 % 0.0 mm
15:47 3.8 °C 3.4 °C 1023.9 hPa North 9.7 km/h 14.3 km/h 97 % 0.0 mm
15:52 3.8 °C 3.4 °C 1023.9 hPa North 7.9 km/h 11.1 km/h 97 % 0.0 mm
15:57 3.8 °C 3.4 °C 1023.9 hPa North 10.5 km/h 12.6 km/h 97 % 0.0 mm
16:02 3.8 °C 3.4 °C 1023.9 hPa North 5.8 km/h 12.6 km/h 97 % 0.0 mm
16:07 3.8 °C 3.4 °C 1023.9 hPa North 9.7 km/h 12.6 km/h 97 % 0.0 mm
16:12 3.8 °C 3.4 °C 1023.9 hPa North 6.9 km/h 12.6 km/h 97 % 0.0 mm
16:17 3.8 °C 3.4 °C 1023.9 hPa NW 4.3 km/h 10.8 km/h 97 % 0.0 mm
16:22 3.8 °C 3.4 °C 1023.9 hPa North 6.9 km/h 10.8 km/h 97 % 0.0 mm
16:27 3.8 °C 3.4 °C 1023.9 hPa Calm   10.1 km/h 97 % 0.0 mm
16:32 3.8 °C 3.4 °C 1023.9 hPa North 5.5 km/h 10.1 km/h 97 % 0.0 mm
16:37 3.8 °C 3.4 °C 1024.9 hPa NNW 5.8 km/h 10.1 km/h 97 % 0.0 mm
16:42 3.8 °C 3.4 °C 1024.9 hPa North 5.5 km/h 13.7 km/h 97 % 0.0 mm
16:47 3.9 °C 3.5 °C 1024.9 hPa North 9.3 km/h 13.7 km/h 97 % 0.0 mm
16:52 3.9 °C 3.5 °C 1024.9 hPa North 6.9 km/h 13.0 km/h 97 % 0.0 mm
16:57 3.9 °C 3.3 °C 1024.9 hPa North 10.1 km/h 13.0 km/h 96 % 0.0 mm
17:02 3.8 °C 3.4 °C 1024.9 hPa North 12.2 km/h 15.8 km/h 97 % 0.0 mm
17:07 3.8 °C 3.2 °C 1024.9 hPa NE 9.0 km/h 15.8 km/h 96 % 0.0 mm
17:12 3.8 °C 3.2 °C 1024.9 hPa North 5.8 km/h 14.3 km/h 96 % 0.0 mm
17:17 3.8 °C 3.2 °C 1024.9 hPa NNE 6.4 km/h 14.0 km/h 96 % 0.0 mm
17:22 3.8 °C 3.2 °C 1024.9 hPa NW 7.6 km/h 13.7 km/h 96 % 0.0 mm
17:27 3.7 °C 3.2 °C 1024.9 hPa NNW 9.0 km/h 13.7 km/h 96 % 0.0 mm
17:32 3.7 °C 3.2 °C 1024.9 hPa NNW 9.0 km/h 13.0 km/h 96 % 0.0 mm
17:37 3.7 °C 3.2 °C 1023.9 hPa North 4.7 km/h 13.7 km/h 96 % 0.0 mm
17:42 3.7 °C 3.2 °C 1023.9 hPa North 4.7 km/h 13.7 km/h 96 % 0.0 mm
17:47 3.6 °C 3.1 °C 1023.9 hPa North 11.9 km/h 19.8 km/h 96 % 0.0 mm
17:52 3.6 °C 3.1 °C 1024.9 hPa North 7.6 km/h 19.8 km/h 96 % 0.0 mm
17:57 3.6 °C 3.1 °C 1024.9 hPa NNW 5.0 km/h 15.8 km/h 96 % 0.0 mm
18:02 3.6 °C 2.9 °C 1024.9 hPa North 8.7 km/h 15.4 km/h 96 % 0.0 mm
18:07 3.6 °C 2.9 °C 1024.9 hPa NNE 5.8 km/h 15.4 km/h 96 % 0.0 mm
18:12 3.6 °C 2.9 °C 1024.9 hPa North 9.0 km/h 13.7 km/h 96 % 0.0 mm
18:17 3.4 °C 2.8 °C 1024.9 hPa North 10.1 km/h 20.9 km/h 96 % 0.0 mm
18:22 3.4 °C 2.8 °C 1024.9 hPa NNW 16.6 km/h 20.9 km/h 96 % 0.0 mm
18:27 3.4 °C 2.8 °C 1024.9 hPa NNW 9.3 km/h 17.7 km/h 96 % 0.0 mm
18:32 3.3 °C 2.9 °C 1024.9 hPa NNW 12.6 km/h 17.7 km/h 97 % 0.0 mm
18:37 3.3 °C 2.9 °C 1024.9 hPa North 11.9 km/h 15.8 km/h 97 % 0.0 mm
18:42 3.3 °C 2.9 °C 1024.9 hPa NNW 11.9 km/h 19.5 km/h 97 % 0.0 mm
18:47 3.3 °C 2.9 °C 1024.9 hPa North 6.4 km/h 19.5 km/h 97 % 0.0 mm
18:52 3.3 °C 2.9 °C 1026.0 hPa North 9.3 km/h 16.3 km/h 97 % 0.0 mm
18:57 3.3 °C 2.9 °C 1026.0 hPa NNE 8.7 km/h 16.3 km/h 97 % 0.0 mm
18:58 3.3 °C 2.9 °C 1026.0 hPa North 9.7 km/h 16.3 km/h 97 % 0.0 mm
19:03 3.3 °C 2.9 °C 1026.0 hPa North 13.0 km/h 20.1 km/h 97 % 0.0 mm
19:08 3.3 °C 2.9 °C 1024.9 hPa North 6.4 km/h 20.1 km/h 97 % 0.0 mm
19:13 3.3 °C 2.9 °C 1024.9 hPa North 10.5 km/h 19.8 km/h 97 % 0.0 mm
19:18 3.3 °C 2.9 °C 1024.9 hPa NE 9.0 km/h 13.7 km/h 97 % 0.0 mm
19:23 3.3 °C 2.9 °C 1026.0 hPa North 9.7 km/h 12.2 km/h 97 % 0.0 mm
19:28 3.3 °C 2.9 °C 1026.0 hPa NNE 9.7 km/h 14.3 km/h 97 % 0.0 mm
19:33 3.3 °C 2.9 °C 1026.0 hPa North 14.3 km/h 14.3 km/h 97 % 0.0 mm
19:38 3.3 °C 2.9 °C 1026.0 hPa North 14.0 km/h 15.1 km/h 97 % 0.0 mm
19:43 3.3 °C 2.9 °C 1026.0 hPa NNE 12.2 km/h 15.1 km/h 97 % 0.0 mm
19:48 3.3 °C 2.9 °C 1026.0 hPa North 9.7 km/h 14.0 km/h 97 % 0.0 mm
19:53 3.3 °C 2.9 °C 1026.0 hPa North 10.5 km/h 17.2 km/h 97 % 0.0 mm
19:58 3.2 °C 2.8 °C 1026.0 hPa North 9.7 km/h 17.2 km/h 97 % 0.0 mm
20:03 3.2 °C 2.8 °C 1026.0 hPa North 9.0 km/h 17.2 km/h 97 % 0.0 mm
20:08 3.2 °C 2.8 °C 1026.0 hPa NNW 13.7 km/h 17.2 km/h 97 % 0.0 mm
20:13 3.2 °C 2.8 °C 1026.0 hPa NNE 6.9 km/h 21.2 km/h 97 % 0.0 mm
20:18 3.2 °C 2.7 °C 1026.0 hPa North 12.2 km/h 16.6 km/h 96 % 0.0 mm
20:23 3.2 °C 2.7 °C 1026.0 hPa North 12.2 km/h 16.6 km/h 96 % 0.0 mm
20:28 3.2 °C 2.7 °C 1026.0 hPa North 9.7 km/h 16.3 km/h 96 % 0.0 mm
20:33 3.2 °C 2.7 °C 1026.0 hPa NNE 5.8 km/h 16.3 km/h 96 % 0.0 mm
20:38 3.2 °C 2.7 °C 1026.0 hPa NNW 4.7 km/h 14.0 km/h 96 % 0.0 mm
20:43 3.2 °C 2.7 °C 1026.0 hPa North 8.7 km/h 14.0 km/h 96 % 0.0 mm
20:48 3.2 °C 2.7 °C 1026.0 hPa North 7.2 km/h 15.4 km/h 96 % 0.0 mm
20:53 3.2 °C 2.7 °C 1026.0 hPa North 6.4 km/h 15.4 km/h 96 % 0.0 mm
20:58 3.2 °C 2.7 °C 1026.0 hPa North 9.0 km/h 14.3 km/h 96 % 0.0 mm
21:03 3.1 °C 2.6 °C 1026.0 hPa North 10.1 km/h 14.3 km/h 96 % 0.0 mm
21:08 3.1 °C 2.6 °C 1027.0 hPa NNE 13.0 km/h 17.7 km/h 96 % 0.0 mm
21:13 3.1 °C 2.6 °C 1027.0 hPa North 12.6 km/h 17.7 km/h 96 % 0.0 mm
21:18 3.1 °C 2.4 °C 1027.0 hPa NNE 7.6 km/h 17.7 km/h 96 % 0.0 mm
21:23 3.1 °C 2.4 °C 1026.0 hPa North 8.7 km/h 14.0 km/h 96 % 0.0 mm
21:28 3.1 °C 2.4 °C 1026.0 hPa NW 13.0 km/h 14.0 km/h 96 % 0.0 mm
21:33 3.1 °C 2.4 °C 1026.0 hPa North 6.9 km/h 14.3 km/h 96 % 0.0 mm
21:38 3.1 °C 2.4 °C 1026.0 hPa NNE 7.9 km/h 14.3 km/h 96 % 0.0 mm
21:43 3.1 °C 2.4 °C 1026.0 hPa North 10.1 km/h 13.0 km/h 96 % 0.0 mm
21:48 3.1 °C 2.4 °C 1026.0 hPa North 8.7 km/h 15.4 km/h 96 % 0.0 mm
21:53 2.9 °C 2.4 °C 1026.0 hPa North 9.7 km/h 15.4 km/h 96 % 0.0 mm
21:58 2.9 °C 2.4 °C 1026.0 hPa North 11.9 km/h 14.8 km/h 96 % 0.0 mm
22:03 2.9 °C 2.4 °C 1026.0 hPa North 8.7 km/h 14.0 km/h 96 % 0.0 mm
22:08 2.9 °C 2.4 °C 1027.0 hPa North 13.7 km/h 16.3 km/h 96 % 0.0 mm
22:13 2.9 °C 2.4 °C 1027.0 hPa North 12.2 km/h 16.3 km/h 96 % 0.0 mm
22:18 2.9 °C 2.4 °C 1027.0 hPa NNE 9.3 km/h 14.8 km/h 96 % 0.0 mm
22:23 2.9 °C 2.4 °C 1026.0 hPa NNE 10.5 km/h 13.7 km/h 96 % 0.0 mm
22:28 2.9 °C 2.4 °C 1026.0 hPa NNW 10.1 km/h 14.0 km/h 96 % 0.0 mm
22:33 2.9 °C 2.4 °C 1026.0 hPa North 7.9 km/h 15.8 km/h 96 % 0.0 mm
22:38 2.9 °C 2.4 °C 1026.0 hPa North 5.0 km/h 17.7 km/h 96 % 0.0 mm
22:43 2.8 °C 2.4 °C 1026.0 hPa North 9.7 km/h 17.7 km/h 97 % 0.0 mm
22:48 2.8 °C 2.4 °C 1026.0 hPa NNE 5.5 km/h 14.0 km/h 97 % 0.0 mm
22:53 2.8 °C 2.4 °C 1027.0 hPa NNW 5.5 km/h 13.7 km/h 97 % 0.0 mm
22:58 2.8 °C 2.4 °C 1027.0 hPa North 7.6 km/h 12.6 km/h 97 % 0.0 mm
23:03 2.8 °C 2.4 °C 1027.0 hPa North 8.7 km/h 12.6 km/h 97 % 0.0 mm
23:08 2.8 °C 2.4 °C 1026.0 hPa North 9.0 km/h 13.0 km/h 97 % 0.0 mm
23:13 2.8 °C 2.4 °C 1026.0 hPa NNE 9.0 km/h 13.0 km/h 97 % 0.0 mm
23:18 2.8 °C 2.4 °C 1026.0 hPa NNE 6.1 km/h 10.5 km/h 97 % 0.0 mm
23:23 2.8 °C 2.4 °C 1026.0 hPa North 6.9 km/h 10.1 km/h 97 % 0.0 mm
23:28 2.8 °C 2.4 °C 1026.0 hPa NNE 10.1 km/h 10.1 km/h 97 % 0.0 mm
23:33 2.7 °C 2.3 °C 1026.0 hPa North 11.1 km/h 13.7 km/h 97 % 0.0 mm
23:38 2.7 °C 2.3 °C 1027.0 hPa NE 11.9 km/h 13.7 km/h 97 % 0.0 mm
23:43 2.7 °C 2.3 °C 1027.0 hPa North 6.9 km/h 12.2 km/h 97 % 0.0 mm
23:48 2.7 °C 2.3 °C 1027.0 hPa North 9.7 km/h 11.9 km/h 97 % 0.0 mm
23:53 2.7 °C 2.3 °C 1027.0 hPa NE 6.4 km/h 13.7 km/h 97 % 0.0 mm
23:58 2.7 °C 2.3 °C 1027.0 hPa NNE 6.1 km/h 13.7 km/h 97 % 0.0 mm
Le Gheer Warneton
Courtoisie de Weather Underground - 2.25 mb

Mise a jour : 18/12/2017 23:16:12
Généré par Cumulus 1.9.4 (1099)